TimeAKDT,TemperatureF,Dew PointF,Humidity,Sea Level PressureIn,VisibilityMPH,Wind Direction,Wind SpeedMPH,Gust SpeedMPH,PrecipitationIn,Events,Conditions,WindDirDegrees,DateUTC
12:53 AM,53.1,51.1,93,30.22,10.0,Calm,Calm,-,N/A,,Mostly Cloudy,0,2013-09-06 08:53:00
1:53 AM,52.0,51.1,97,30.21,10.0,Calm,Calm,-,0.01,,Clear,0,2013-09-06 09:53:00
2:53 AM,51.1,50.0,96,30.20,10.0,Calm,Calm,-,N/A,,Clear,0,2013-09-06 10:53:00
3:53 AM,50.0,48.9,96,30.19,10.0,Calm,Calm,-,N/A,,Clear,0,2013-09-06 11:53:00
4:53 AM,51.1,48.9,92,30.19,9.0,Calm,Calm,-,N/A,,Mostly Cloudy,0,2013-09-06 12:53:00
5:53 AM,52.0,51.1,97,30.19,10.0,Calm,Calm,-,N/A,,Overcast,0,2013-09-06 13:53:00
6:53 AM,52.0,51.1,97,30.19,10.0,Calm,Calm,-,N/A,,Overcast,0,2013-09-06 14:53:00
7:53 AM,55.9,54.0,93,30.19,10.0,Calm,Calm,-,N/A,,Clear,0,2013-09-06 15:53:00
8:53 AM,61.0,55.0,81,30.19,10.0,Calm,Calm,-,N/A,,Clear,0,2013-09-06 16:53:00
9:53 AM,64.9,55.0,70,30.18,10.0,NNW,3.5,-,N/A,,Mostly Cloudy,340,2013-09-06 17:53:00
10:53 AM,68.0,54.0,61,30.17,10.0,Calm,Calm,-,N/A,,Clear,0,2013-09-06 18:53:00
11:53 AM,71.1,55.9,59,30.16,10.0,WSW,5.8,-,N/A,,Clear,240,2013-09-06 19:53:00
12:53 PM,71.1,54.0,55,30.16,10.0,WSW,5.8,-,N/A,,Clear,240,2013-09-06 20:53:00
1:53 PM,73.0,54.0,51,30.15,10.0,WSW,6.9,-,N/A,,Clear,240,2013-09-06 21:53:00
2:53 PM,71.1,54.0,55,30.14,10.0,WSW,6.9,-,N/A,,Clear,240,2013-09-06 22:53:00
3:53 PM,69.1,53.1,57,30.14,10.0,South,5.8,-,N/A,,Clear,190,2013-09-06 23:53:00
4:53 PM,68.0,50.0,52,30.14,10.0,Variable,3.5,-,N/A,,Clear,0,2013-09-07 00:53:00
5:53 PM,66.9,50.0,54,30.13,10.0,South,3.5,-,N/A,,Clear,180,2013-09-07 01:53:00
6:53 PM,62.1,51.1,67,30.13,10.0,Calm,Calm,-,N/A,,Clear,0,2013-09-07 02:53:00
7:53 PM,59.0,50.0,72,30.14,10.0,SSW,3.5,-,N/A,,Clear,200,2013-09-07 03:53:00
8:53 PM,57.0,50.0,77,30.13,10.0,Calm,Calm,-,N/A,,Clear,0,2013-09-07 04:53:00
9:53 PM,55.9,51.1,84,30.14,10.0,Calm,Calm,-,N/A,,Clear,0,2013-09-07 05:53:00
10:53 PM,55.0,52.0,89,30.13,10.0,Calm,Calm,-,N/A,,Clear,0,2013-09-07 06:53:00
11:53 PM,55.0,51.1,86,30.14,10.0,Calm,Calm,-,N/A,,Clear,0,2013-09-07 07:53:00